User: anonymous   Login
Location: Thompson
(55.7500°N, 97.8670°W)
Time: 05:42:37
(UTC-05:00)
Language:

Cosmos 1833 Rocket - Orbit

View from above orbital plane
View from above orbital plane
View from above satellite
View from above satellite

Ground track
Ground track

The orbit data is extracted from the following two-line orbital elements,

1 17590U 87027B   17206.61113911 -.00000222 +00000-0 -86866-4 0  9991
2 17590 071.0028 069.0662 0007158 252.6292 107.4049 14.16743903569339
Epoch (UTC): 25 July 2017 14:40:02
Eccentricity: 0.0007158
inclination: 71.0028°
perigee height: 831 km
apogee height: 841 km
right ascension of ascending node: 69.0662°
argument of perigee: 252.6292°
revolutions per day: 14.16743903
mean anomaly at epoch: 107.4049°
orbit number at epoch: 56933

The dashed part of the orbit path shows where the satellite is in the earth's shadow,  

DLR